Location: Spring Creek
(38.2870°N, 100.2160°W)
Time: 10:42:05
(UTC+00:00)

PSLV R/B - Pass Details

Date: 08 May 2021
Orbit: 594 x 628 km, 98.0° (Epoch: 22 June)

Event Time Altitude Azimuth Distance (km) Brightness Sun altitude
Rises 10:49:28 0° 12° (NNE) 2,841 7.6 -9.0°
Reaches altitude 10° 10:51:38 10° 12° (NNE) 1,935 6.7 -8.6°
Maximum altitude 10:55:50 89° 295° (WNW) 601 3.5 -7.9°
Drops below altitude 10° 11:00:02 10° 194° (SSW) 1,927 5.7 -7.2°
Sets 11:02:11 0° 194° (SSW) 2,828 6.5 -6.8°
